STARLINK-1237, 45192

Orbit data source: Space-Track

STARLINK-1237, 45192 is a payload satellite owned by SpaceX/Seattle (US) in LEO that was launched on Mon, 17 Feb 2020 UTC via an FALCON 9 launch vehicle from the Air Force Eastern Test Range (AFETR). Payload-class satellites include a variety of spacecraft equipped with specific instruments for various scientific and technological missions. These include communications satellites like Starlink; space stations such as the ISS; scientific satellites like the Hubble; Earth observation satellites from companies like Planet Labs, Umbra, and HawkEye 360; GPS; miniature CubeSats for education and research; and military/defense satellites.

Loading next visibility...
Identifier
45192, 2020-012Q
Orbit
LEO
Last TLE update
20 hours ago
Origin
Manufacturer
SpaceX/Seattle
Mission
Partially operational Commercial Communications
Bus & Motor
STARLINK, Unknown motor
Mass
260 kg wet, ~248 kg dry
Launch date (UTC)
2020-02-17 (5 years ago)
Launch vehicle
FALCON 9
Launch site
Air Force Eastern Test Range (AFETR)
Object type
Payload
Rocket body
Debris
Shape & HBR
Box + 1 Pan, 8.86 m
Radar Cross Section
13.562 m², Large (>1 m²)

Expand to show TLE details & history

TLE from 20 hours ago
0 STARLINK-1237
1 45192U 20012Q   25185.91668981  .00110547  00000-0  85941-3 0  9993
2 45192  53.0564  66.8495 0002912 168.0163 308.0830 15.70952303  5892
Epoch: 2025-07-04T22:00Z
TLE epoch observation values (Epoch: 2025-07-04T22:00:01.999Z)
Latitude
46.02657°
Longitude
-57.13319°
Altitude
359.856 km
Speed
7.7 km/s
True Right ascension
13h 04m 08s
True Declination
45° 50' 40"
Sunlit
Object was in daylight at epoch
Visualization orbit readout
Latitude
48.66819°
Longitude
-68.64974°
Altitude
360.194 km
Speed
7.7 km/s
Apparent Right ascension
15h 10m 48s
Apparent Declination
7° 45' 53"
Sunlit
Object is in daylight
Visualization observer readout
Local Sidereal Time
05:44:53
Azimuth
45.752° ENE
Elevation
-30.524°
Doppler factor
1
Orbital elements
Apogee altitude
358.413 km
Perigee altitude
354.491 km
Semi-major axis
6,734.589 km
Eccentricity
0.00029
Inclination
53.0564°
RAAN
66.8495°
Arg. of periapsis
168.0163°
True anomaly
Unknown
Mean anomaly
308.083°
Eccentric anomaly
Unknown
Mean motion
3.92714 °/min
Orbital period
91.67 mins
BSTAR
0.00085941
Loading maneuver chart data...
Loading SW <> Apogee altitude chart data...

STARLINK-1237 Visibility forecast

Observer location: undefined°, undefined°

Span
Click to sort rows by Start time (UTC) header in descending order
Start Az.
Max El. time (UTC)
Max El. Az.
Max El.
End time (UTC)
End Az.
5 mins2025-07-05 19:04:27.268Z243.058° WSW2025-07-05 19:07:27.268Z348.239° N38.698°2025-07-05 19:09:27.268Z39.836° NE
|